Location: Unspecified
(0.0000°N, 0.0000°E)
Time: 01:38:07
(UTC+00:00)

Vanguard 1 Rocket - Pass Details

Date: 05 October 2023
Orbit: 649 x 4220 km, 34.3° (Epoch: 11 September)

Event Time Altitude Azimuth Distance (km) Brightness Sun altitude
Rises 21:43:36 0° 292° (WNW) 6,337 12.1 -58.5°
Reaches altitude 10° 21:49:06 10° 307° (NW) 5,895 11.7 -59.8°
Maximum altitude 22:03:20 22° 353° (N) 5,936 11.3 -63.3°
Enters shadow 22:04:26 22° 356° (N) 5,997 11.3 -63.6°
